• In Moldova, Republic
  • List of Countries
  • For 7 days
  • Water Temperature
  • Satellite Maps
  • Weather Map
  • Weather Widgets
  • user-avatar
    Login

    Hourly Weather Lezhe

    Today, 23 July, Sunday

    Time Temperature Precipitation Wind Pressure Humidity
    00:00 +25°C° 0 mm 2 mps 738 mmHg 47%
    01:00 +25°C° 0 mm 2 mps 738 mmHg 45%
    02:00 +25°C° 0 mm 2 mps 738 mmHg 45%
    03:00 +25°C° 0 mm 2 mps 738 mmHg 44%
    04:00 +25°C° 0 mm 2 mps 738 mmHg 43%
    05:00 +27°C° 0 mm 1 mps 738 mmHg 41%
    06:00 +29°C° 0 mm 1 mps 738 mmHg 39%
    07:00 +31°C° 0 mm 1 mps 738 mmHg 37%
    08:00 +32°C° 0 mm 1 mps 738 mmHg 35%
    09:00 +35°C° 0 mm 2 mps 738 mmHg 32%
    10:00 +36°C° 0 mm 3 mps 738 mmHg 29%
    11:00 +37°C° 0 mm 3 mps 737 mmHg 29%
    12:00 +37°C° 0 mm 3 mps 737 mmHg 29%
    13:00 +37°C° 0 mm 3 mps 737 mmHg 29%
    14:00 +37°C° 0 mm 3 mps 737 mmHg 30%
    15:00 +37°C° 0 mm 3 mps 736 mmHg 32%
    16:00 +36°C° 0 mm 2 mps 736 mmHg 34%
    17:00 +34°C° 0 mm 2 mps 736 mmHg 42%
    18:00 +30°C° 0 mm 2 mps 736 mmHg 49%
    19:00 +28°C° 0 mm 1 mps 736 mmHg 56%
    20:00 +27°C° 0 mm 1 mps 736 mmHg 59%
    21:00 +26°C° 0 mm 1 mps 737 mmHg 62%
    22:00 +25°C° 0 mm 1 mps 737 mmHg 65%
    23:00 +25°C° 0 mm 1 mps 737 mmHg 66%

    Tomorrow, 24 July, Monday

    Time Temperature Precipitation Wind Pressure Humidity
    00:00 +24°C° 0 mm 1 mps 736 mmHg 66%
    01:00 +24°C° 0 mm 1 mps 736 mmHg 67%
    02:00 +24°C° 0 mm 1 mps 736 mmHg 67%
    03:00 +23°C° 0 mm 1 mps 735 mmHg 68%
    04:00 +23°C° 0 mm 1 mps 735 mmHg 68%
    05:00 +25°C° 0 mm 1 mps 735 mmHg 62%
    06:00 +25°C° 0 mm 0 mps 735 mmHg 56%
    07:00 +28°C° 0 mm 0 mps 735 mmHg 50%
    08:00 +31°C° 0 mm 1 mps 735 mmHg 44%
    09:00 +33°C° 0 mm 1 mps 735 mmHg 38%
    10:00 +35°C° 0 mm 2 mps 734 mmHg 32%
    11:00 +36°C° 0 mm 2 mps 734 mmHg 30%
    12:00 +37°C° 0 mm 3 mps 733 mmHg 27%
    13:00 +38°C° 0 mm 3 mps 733 mmHg 25%
    14:00 +37°C° 0 mm 3 mps 732 mmHg 26%
    15:00 +37°C° 0 mm 3 mps 732 mmHg 27%
    16:00 +36°C° 0 mm 3 mps 731 mmHg 29%
    17:00 +34°C° 0 mm 2 mps 731 mmHg 35%
    18:00 +30°C° 0 mm 2 mps 731 mmHg 41%
    19:00 +28°C° 0 mm 1 mps 730 mmHg 46%
    20:00 +27°C° 0 mm 2 mps 730 mmHg 48%
    21:00 +26°C° 0 mm 2 mps 730 mmHg 49%
    22:00 +25°C° 0 mm 3 mps 730 mmHg 51%
    23:00 +25°C° 0 mm 3 mps 730 mmHg 51%

    Day after tomorrow, 25 July, Tuesday

    Time Temperature Precipitation Wind Pressure Humidity
    00:00 +24°C° 0 mm 3 mps 729 mmHg 50%
    01:00 +24°C° 0 mm 3 mps 729 mmHg 50%
    02:00 +24°C° 0 mm 3 mps 729 mmHg 54%
    03:00 +22°C° 0 mm 3 mps 729 mmHg 57%
    04:00 +22°C° 0 mm 3 mps 728 mmHg 60%
    05:00 +23°C° 0 mm 4 mps 728 mmHg 62%
    06:00 +25°C° 0 mm 4 mps 728 mmHg 63%
    07:00 +27°C° 0 mm 4 mps 728 mmHg 65%
    08:00 +27°C° 0.3 mm 5 mps 728 mmHg 61%
    09:00 +28°C° 0.3 mm 5 mps 728 mmHg 58%
    10:00 +29°C° 0.3 mm 5 mps 728 mmHg 55%
    11:00 +29°C° 0.4 mm 5 mps 728 mmHg 55%
    12:00 +29°C° 0.4 mm 5 mps 728 mmHg 55%
    13:00 +29°C° 0.4 mm 5 mps 728 mmHg 56%
    14:00 +29°C° 0.1 mm 5 mps 728 mmHg 54%
    15:00 +29°C° 0.1 mm 4 mps 728 mmHg 53%
    16:00 +29°C° 0.1 mm 4 mps 728 mmHg 51%
    17:00 +27°C° 0.1 mm 4 mps 728 mmHg 57%
    18:00 +26°C° 0.1 mm 3 mps 728 mmHg 63%
    19:00 +24°C° 0.1 mm 3 mps 728 mmHg 69%
    20:00 +22°C° 0.4 mm 3 mps 729 mmHg 73%
    21:00 +21°C° 0.4 mm 3 mps 729 mmHg 78%
    22:00 +20°C° 0.4 mm 3 mps 729 mmHg 82%
    23:00 +20°C° 0.1 mm 3 mps 729 mmHg 82%

    26 July, Wednesday

    Time Temperature Precipitation Wind Pressure Humidity
    00:00 +20°C° 0.1 mm 3 mps 729 mmHg 82%
    01:00 +19°C° 0.1 mm 2 mps 729 mmHg 83%
    02:00 +19°C° 0 mm 2 mps 729 mmHg 83%
    03:00 +19°C° 0 mm 2 mps 729 mmHg 83%
    04:00 +19°C° 0 mm 2 mps 729 mmHg 83%
    05:00 +20°C° 0 mm 2 mps 729 mmHg 78%
    06:00 +23°C° 0 mm 2 mps 729 mmHg 72%
    07:00 +25°C° 0 mm 2 mps 729 mmHg 66%
    08:00 +26°C° 0.1 mm 3 mps 729 mmHg 60%
    09:00 +28°C° 0.1 mm 3 mps 729 mmHg 54%
    10:00 +29°C° 0.1 mm 4 mps 729 mmHg 48%
    11:00 +29°C° 0.3 mm 4 mps 729 mmHg 51%
    12:00 +28°C° 0.3 mm 4 mps 729 mmHg 55%
    13:00 +28°C° 0.3 mm 5 mps 729 mmHg 59%
    14:00 +27°C° 0.4 mm 4 mps 729 mmHg 61%
    15:00 +27°C° 0.4 mm 4 mps 729 mmHg 62%
    16:00 +27°C° 0.4 mm 3 mps 729 mmHg 64%
    17:00 +25°C° 0.1 mm 3 mps 729 mmHg 69%
    18:00 +24°C° 0.1 mm 2 mps 729 mmHg 74%
    19:00 +21°C° 0.1 mm 2 mps 730 mmHg 78%
    20:00 +21°C° 0.1 mm 2 mps 730 mmHg 81%
    21:00 +20°C° 0.1 mm 2 mps 730 mmHg 83%
    22:00 +19°C° 0.1 mm 2 mps 731 mmHg 86%
    23:00 +19°C° 0.4 mm 2 mps 731 mmHg 86%

    27 July, Thursday

    Time Temperature Precipitation Wind Pressure Humidity
    00:00 +19°C° 0.4 mm 2 mps 731 mmHg 86%
    01:00 +19°C° 0.4 mm 2 mps 731 mmHg 86%
    02:00 +18°C° 0.7 mm 2 mps 731 mmHg 86%
    03:00 +18°C° 0.7 mm 2 mps 731 mmHg 87%
    04:00 +18°C° 0.7 mm 2 mps 731 mmHg 87%
    05:00 +20°C° 0.2 mm 2 mps 731 mmHg 81%
    06:00 +21°C° 0.2 mm 2 mps 731 mmHg 75%
    07:00 +24°C° 0.2 mm 2 mps 731 mmHg 69%
    08:00 +25°C° 0.5 mm 2 mps 731 mmHg 63%
    09:00 +27°C° 0.5 mm 2 mps 731 mmHg 57%
    10:00 +28°C° 0.5 mm 2 mps 732 mmHg 51%
    11:00 +28°C° 0.5 mm 2 mps 731 mmHg 49%
    12:00 +29°C° 0.5 mm 2 mps 731 mmHg 47%
    13:00 +29°C° 0.5 mm 2 mps 731 mmHg 46%
    14:00 +29°C° 0.5 mm 2 mps 732 mmHg 47%
    15:00 +29°C° 0.5 mm 2 mps 732 mmHg 49%
    16:00 +28°C° 0.5 mm 2 mps 732 mmHg 51%
    17:00 +27°C° 0.9 mm 2 mps 732 mmHg 58%
    18:00 +25°C° 0.9 mm 2 mps 732 mmHg 65%
    19:00 +23°C° 0.9 mm 1 mps 733 mmHg 73%
    20:00 +23°C° 0.4 mm 2 mps 733 mmHg 75%
    21:00 +21°C° 0.4 mm 2 mps 733 mmHg 77%
    22:00 +20°C° 0.4 mm 2 mps 734 mmHg 79%
    23:00 +20°C° 0.2 mm 2 mps 734 mmHg 79%

    28 July, Friday

    Time Temperature Precipitation Wind Pressure Humidity
    00:00 +20°C° 0.2 mm 2 mps 734 mmHg 79%
    01:00 +20°C° 0.2 mm 2 mps 734 mmHg 79%
    02:00 +19°C° 0.1 mm 2 mps 734 mmHg 79%
    03:00 +19°C° 0.1 mm 2 mps 735 mmHg 79%
    04:00 +19°C° 0.1 mm 3 mps 735 mmHg 80%
    05:00 +20°C° 0 mm 3 mps 735 mmHg 75%
    06:00 +22°C° 0 mm 3 mps 735 mmHg 70%
    07:00 +24°C° 0 mm 3 mps 735 mmHg 65%
    08:00 +26°C° 0 mm 3 mps 735 mmHg 58%
    09:00 +27°C° 0 mm 3 mps 736 mmHg 52%
    10:00 +29°C° 0 mm 3 mps 736 mmHg 45%
    11:00 +30°C° 0.1 mm 3 mps 736 mmHg 43%
    12:00 +30°C° 0.1 mm 4 mps 735 mmHg 42%
    13:00 +32°C° 0.1 mm 5 mps 735 mmHg 40%
    14:00 +32°C° 0.1 mm 4 mps 735 mmHg 42%
    15:00 +30°C° 0.1 mm 4 mps 735 mmHg 44%
    16:00 +30°C° 0.1 mm 4 mps 735 mmHg 45%
    17:00 +28°C° 0 mm 4 mps 736 mmHg 51%
    18:00 +26°C° 0 mm 3 mps 736 mmHg 57%
    19:00 +25°C° 0 mm 3 mps 736 mmHg 63%
    20:00 +24°C° 0 mm 3 mps 737 mmHg 65%
    21:00 +23°C° 0 mm 2 mps 737 mmHg 67%
    22:00 +21°C° 0 mm 2 mps 737 mmHg 68%
    23:00 +21°C° 0 mm 2 mps 738 mmHg 70%
    Show more